LFLBLFLY

Guest
Details From LFLB - Aix-les-bains
To LFLY - Lyon Bron
Flight Number -
Tags Generated
Created
Modified
Stats Distance 40 nm / 74 km
Max Altitude 0 ft / 0 m
Waypoints 2
Social Downloads 0
Likes 0
Share VATSIM

Download

Looking for another format? Having issues loading an existing format? Contact us
Advertisement - Login to hide

Notes

Generated

Route

LFLB LFLY

ID Type Via Altitude Latitude Longitude Leg Dist Tot Dist Heading (true) Name
O LFLB APT - 0 ft / 0 m 45.63794˚ 5.88121˚ - 0 nm - Aix-Les-Bains
O LFLY APT - 0 ft / 0 m 45.73501˚ 4.94093˚ 39 nm 39 nm 279° / 278° -

Altitude Profile

Advertisement - Login to hide

LFLB

Details ICAO LFLB (CMF)
Name Aix-Les-Bains
Region France
Timezone Europe/Paris (UTC+1.0)
Stats Elevation 779 ft / 237 m (AMSL)
Location 45.636234° 5.880898°
Runways 2
Magnetic Variation 1.691° E

METAR

LFLB 181430Z AUTO VRB03KT 9999 FEW012 OVC024 01/M01 Q1023 NOSIG

Decode

TAF

TAF LFLB 181100Z 1812/1912 18004KT 9999 SCT012 OVC025 TEMPO 1812/1815 3000 -SN BKN011 BECMG 1815/1817 36010KT TEMPO 1823/1909 VRB02KT 3000 BR NSC PROB30 TEMPO 1903/1907 0800 BCFG BKN004 BECMG 1910/1912 CAVOK

Decode

Departure Runways

ID Width Length Bearing (true) Bearing (mag) Surface Threshold Offset Overrun Length
18 148 ft / 45 m 5,452 ft / 1,662 m 176.72° 175.03° Asphalt 26 ft / 8 m 774 ft / 236 m
18L 197 ft / 60 m 2,309 ft / 704 m 176.70° 175.01° Grass 0 ft / 0 m 0 ft / 0 m
36 148 ft / 45 m 5,452 ft / 1,662 m 356.72° 355.03° Asphalt 23 ft / 7 m 456 ft / 139 m
36R 197 ft / 60 m 2,309 ft / 704 m 356.70° 355.01° Grass 315 ft / 96 m 0 ft / 0 m

LFLY

Details ICAO LFLY (LYN)
Name Lyon Bron
Region France
Timezone Europe/Paris (UTC+1.0)
Stats Elevation 659 ft / 201 m (AMSL)
Location 45.727171° 4.944274°
Runways 1
Magnetic Variation 1.452° E

METAR

LFLY 181430Z AUTO VRB02KT 9999 BKN014 OVC019 03/01 Q1023 BECMG BKN025

Decode

TAF

TAF AMD LFLY 181429Z 1814/1912 17009KT 9999 BKN025 TEMPO 1814/1912 BKN008 BECMG 1814/1816 35010KT PROB30 TEMPO 1823/1910 4000 BR BKN005

Decode

Destination Runways

ID Width Length Bearing (true) Bearing (mag) Surface Threshold Offset Overrun Length
16 148 ft / 45 m 5,972 ft / 1,820 m 163.44° 161.99° Asphalt 984 ft / 300 m 0 ft / 0 m
34 148 ft / 45 m 5,972 ft / 1,820 m 343.44° 341.99° Asphalt 984 ft / 300 m 0 ft / 0 m

Approach Navaids

Runway Type Ident Frequency Range Bearing (true) Bearing (mag) Slope Elevation
16 Localiser LBO 109.95 MHz 18 nm / 33 km 163.45° 162.00° - 653 ft / 199 m (AMSL)
16 DME LBO 109.95 MHz 18 nm / 33 km - - - 680 ft / 207 m (AMSL)
34 Localiser LY 111.30 MHz 18 nm / 33 km 343.44° 341.99° - 640 ft / 195 m (AMSL)
34 Glidescope LY 111.30 MHz 10 nm / 19 km 343.44° 341.99° 3.00° 659 ft / 201 m (AMSL)
34 DME LY 111.30 MHz 18 nm / 33 km - - - 715 ft / 218 m (AMSL)

Popular Alternatives